Overview Statistics Trail Chart Weather Telemetry Raw packets
 

This is the latest recevied weather packets stored in our database for station/object IZ1HMT-3. If no packets are shown the sender has not sent any weather packets the latest 10 day(s).

<< 14 15 16 17 18 19 20 >>
Time Temp. Humidity Pressure Rain* Wind** Luminosity Snow
1788181195 31.67° C 46% 1016.3 hPa - - - -
1788179382 32.22° C 45% 1016.3 hPa - - - -
1788178778 32.78° C 42% 1016.4 hPa - - - -
1788178173 31.67° C 45% 1016.4 hPa - - - -
1788177569 31.67° C 45% 1016.4 hPa - - - -
1788176361 31.67° C 45% 1016.4 hPa - - - -
1788173943 32.22° C 45% 1016.5 hPa - - - -
1788166082 37.78° C 35% 1016.5 hPa - - - -
1788165478 38.33° C 36% 1016.4 hPa - - - -
1788163060 35.56° C 41% 1016.2 hPa - - - -
1788150764 24.44° C 64% 1015.6 hPa - - - -
1788150160 24.44° C 65% 1015.5 hPa - - - -
1788149557 24.44° C 64% 1015.5 hPa - - - -
1788148953 24.44° C 64% 1015.5 hPa - - - -
1788147746 24.44° C 63% 1015.6 hPa - - - -
1788145935 24.44° C 63% 1015.9 hPa - - - -
1788145346 24.44° C 64% 1016 hPa - - - -
1788144728 24.44° C 63% 1015.9 hPa - - - -
1788144124 24.44° C 63% 1015.9 hPa - - - -
1788142917 23.89° C 63% 1015.8 hPa - - - -
1788142313 24.44° C 63% 1015.9 hPa - - - -
1788141710 24.44° C 63% 1015.9 hPa - - - -
1788141106 24.44° C 62% 1016 hPa - - - -
1788139898 24.44° C 62% 1016 hPa - - - -
1788139295 24.44° C 62% 1016 hPa - - - -

* Rain since midnight (hover to see other rain measurements)
** Current wind speed in m/s (hover to see current wind gust speed)